sat.trackr.live / text

‹ back to catalog

HAWK-11A

NORAD 62382 · 2024-247F

PAYLOAD ACTIVE UNKNOWN

§ Identity

Operator
Country
US
Launch date
2024-12-21
Launch site
AFWTR
Launch vehicle
Mass (kg)
RCS (m²)

External: N2YO · Heavens-Above · Gunter

§ Orbital elements

Epoch: 2026-05-25T02:59:18.731904Z

Period
94.12 min
Inclination
44.9952°
Eccentricity
0.0003134
Mean motion
15.29976771 rev/d
Perigee alt
473.7 km
Apogee alt
478.0 km
Semi-major
6,854.0 km
B*
2.1298e-4
RAAN
54.8463°
Arg perigee
78.4500°
Mean anomaly
281.6736°
Rev number
7,947

§ Raw data

HAWK-11A1 62382U 24247F   26145.12452236  .00006000  00000+0  21298-3 0  99932 62382  44.9952  54.8463 0003134  78.4500 281.6736 15.29976771 79475

JSON: /api/v1/satellites/62382 · /tle

For live sub-satellite position, see the globe view (requires WebGL).

§ Visibility from observer

Set your observer location to see the next 7 days of passes ≥ 10°. The values pass through the URL so the page stays shareable.

No JS? Fill the form by hand. The geolocation button needs JavaScript.